TimeCDT,TemperatureF,Dew PointF,Humidity,Sea Level PressureIn,VisibilityMPH,Wind Direction,Wind SpeedMPH,Gust SpeedMPH,PrecipitationIn,Events,Conditions,WindDirDegrees,DateUTC
12:53 AM,39.9,26.1,58,30.12,10.0,Variable,6.9,-,N/A,,Overcast,0,2012-10-06 05:53:00
1:53 AM,41.0,26.1,55,30.13,10.0,West,9.2,-,N/A,,Overcast,280,2012-10-06 06:53:00
2:53 AM,42.1,26.1,53,30.12,10.0,West,5.8,-,N/A,,Overcast,280,2012-10-06 07:53:00
3:53 AM,42.1,25.0,51,30.12,10.0,WNW,11.5,17.3,N/A,,Overcast,300,2012-10-06 08:53:00
4:53 AM,41.0,25.0,53,30.13,10.0,WNW,9.2,-,N/A,,Overcast,300,2012-10-06 09:53:00
5:53 AM,39.0,27.0,62,30.15,10.0,NW,13.8,17.3,N/A,,Overcast,310,2012-10-06 10:53:00
6:53 AM,39.0,28.0,65,30.16,10.0,West,5.8,-,N/A,,Overcast,260,2012-10-06 11:53:00
7:53 AM,39.0,28.0,65,30.18,10.0,WNW,5.8,-,N/A,,Overcast,300,2012-10-06 12:53:00
8:53 AM,39.9,28.0,63,30.20,10.0,West,4.6,-,N/A,,Overcast,280,2012-10-06 13:53:00
9:53 AM,42.1,30.0,62,30.21,10.0,West,4.6,-,N/A,,Overcast,280,2012-10-06 14:53:00
10:53 AM,43.0,28.0,56,30.23,10.0,NW,9.2,-,N/A,,Overcast,310,2012-10-06 15:53:00
11:53 AM,43.0,28.0,56,30.23,10.0,WNW,9.2,-,N/A,,Overcast,300,2012-10-06 16:53:00
1:53 PM,45.0,26.1,48,30.22,10.0,NNW,8.1,16.1,N/A,,Overcast,340,2012-10-06 18:53:00
2:53 PM,44.1,26.1,49,30.22,10.0,NW,5.8,-,N/A,,Overcast,320,2012-10-06 19:53:00
3:53 PM,44.1,25.0,47,30.22,10.0,NNW,6.9,-,N/A,,Overcast,330,2012-10-06 20:53:00
4:53 PM,44.1,26.1,49,30.21,10.0,North,4.6,-,N/A,,Overcast,360,2012-10-06 21:53:00
5:53 PM,43.0,27.0,53,30.23,10.0,WNW,4.6,-,N/A,,Overcast,300,2012-10-06 22:53:00
6:53 PM,42.1,26.1,53,30.24,10.0,Calm,Calm,-,N/A,,Overcast,0,2012-10-06 23:53:00
7:53 PM,42.1,27.0,55,30.25,10.0,Calm,Calm,-,N/A,,Overcast,0,2012-10-07 00:53:00
8:53 PM,41.0,28.0,60,30.25,10.0,Calm,Calm,-,N/A,,Overcast,0,2012-10-07 01:53:00
9:53 PM,39.9,28.0,63,30.25,10.0,WNW,3.5,-,N/A,,Overcast,290,2012-10-07 02:53:00
10:53 PM,39.9,28.0,63,30.25,10.0,WNW,3.5,-,N/A,,Overcast,290,2012-10-07 03:53:00